Location: Standeford and Andreas Observatories
(44.1397°N, 93.9969°W)
Time: 04:52:04
(UTC-05:00)

Cosmos 1500 Rocket - Visible Passes

Search period start: 24 May 2016 00:00
Search period end: 03 June 2016 00:00
Orbit: 603 x 633 km, 82.5° (Epoch: 23 May)

Date Brightness Start Highest point End Pass type
(mag) Time Alt. Az. Time Alt. Az. Time Alt. Az.
24 May 4.0 01:44:49 50° E 01:44:49 50° E 01:48:53 10° NNE visible
24 May 5.5 03:21:56 15° W 03:22:51 15° WNW 03:25:28 10° NNW visible
25 May 3.4 02:01:39 86° WNW 02:01:39 86° WNW 02:05:58 10° N visible
26 May 5.7 00:41:22 16° E 00:41:22 16° E 00:43:49 10° NE visible
26 May 4.0 02:18:29 46° W 02:18:38 46° WNW 02:22:49 10° N visible
27 May 4.9 00:58:11 28° E 00:58:11 28° E 01:01:38 10° NNE visible
27 May 4.9 02:35:18 25° W 02:35:45 26° WNW 02:39:24 10° NNW visible
28 May 4.0 01:14:59 50° E 01:14:59 50° E 01:18:59 10° NNE visible
28 May 5.6 02:52:07 14° W 02:52:58 15° WNW 02:55:31 10° NNW visible
29 May 3.4 01:31:47 84° NW 01:31:47 84° NW 01:36:04 10° N visible
30 May 5.6 00:11:27 16° E 00:11:27 16° E 00:13:56 10° NE visible
30 May 4.1 01:48:34 45° W 01:48:44 45° WNW 01:52:55 10° N visible
31 May 4.8 00:28:13 28° E 00:28:13 28° E 00:31:45 10° NNE visible
31 May 5.0 02:05:20 25° W 02:05:51 25° WNW 02:09:29 10° NNW visible
01 Jun 3.9 00:44:59 52° E 00:44:59 52° E 00:49:06 10° NNE visible
01 Jun 5.7 02:22:06 14° W 02:23:04 15° WNW 02:25:35 10° NNW visible
02 Jun 3.4 01:01:44 83° WSW 01:01:49 84° W 01:06:10 10° N visible
02 Jun 5.5 23:41:21 16° E 23:41:24 16° E 23:44:04 10° NE visible
